Overview Statistics Trail Chart Weather Telemetry Raw packets
 

This is the latest recevied weather packets stored in our database for station/object W6MAF. If no packets are shown the sender has not sent any weather packets the latest 10 day(s).

<< 65 66 67 68 69 70 71 >>
Time Temp. Humidity Pressure Rain* Wind** Luminosity Snow
1788200524 26.67° C 4% - 0 mm 5.81 m/s, 173° - -
1788200226 26.67° C 4% - 0 mm 8.05 m/s, 193° - -
1788199929 26.67° C 4% - 0 mm 5.81 m/s, 174° - -
1788199631 26.67° C 4% - 0 mm 6.26 m/s, 208° - -
1788199333 26.67° C 5% - 0 mm 4.92 m/s, 207° - -
1788199032 26.67° C 5% - 0 mm 5.81 m/s, 193° - -
1788198735 26.67° C 5% - 0 mm 6.26 m/s, 193° - -
1788198437 26.67° C 4% - 0 mm 5.36 m/s, 204° - -
1788198139 26.67° C 5% - 0 mm 7.15 m/s, 195° - -
1788197842 26.11° C 5% - 0 mm 6.26 m/s, 194° - -
1788197586 26.11° C 5% - 0 mm 5.36 m/s, 205° - -
1788197544 26.11° C 5% - 0 mm 5.36 m/s, 205° - -
1788197244 26.11° C 5% - 0 mm 7.15 m/s, 203° - -
1788196945 26.11° C 5% - 0 mm 7.6 m/s, 229° - -
1788196648 26.11° C 5% - 0 mm 5.36 m/s, 211° - -
1788196350 26.11° C 5% - 0 mm 5.36 m/s, 236° - -
1788196052 26.11° C 6% - 0 mm 5.81 m/s, 181° - -
1788195792 26.11° C 6% - 0 mm 3.58 m/s, 236° - -
1788195755 26.11° C 6% - 0 mm 3.58 m/s, 236° - -
1788195454 25.56° C 6% - 0 mm 4.02 m/s, 208° - -
1788194858 25° C 8% - 0 mm 4.02 m/s, 231° - -
1788194561 25° C 11% - 0 mm 3.13 m/s, 249° - -
1788194263 25° C 11% - 0 mm 4.92 m/s, 224° - -
1788193965 24.44° C 12% - 0 mm 4.92 m/s, 212° - -
1788193664 24.44° C 13% - 0 mm 4.47 m/s, 212° - -

* Rain latest hour (hover to see other rain measurements)
** Current wind speed in m/s (hover to see current wind gust speed)